Погода в Дерябкине

Россия / Пензенская область     53°51′35″N   43°11′10″E
темп.,
°C
ветер,
м/с
пор.,
м/с
влажн.,
%
обл.,
%
осадки,
мм/ч
давл.,
гПа
погр.,
м
7 мая, пт
пт700:00+13ю61369100 0.0 1011367
03:00+12ю61367100 0.0 1010354
06:00+11ю71570100 0.0 1009412
09:00+13юз6874100 0.4 1010949
12:00+7сз5890100 3.1 1013499
15:00+10ссз4672100 3.6 10151008
18:00+11с126639 0.1 1015722
21:00+7ююв33845 0.1 101730
8 мая, сб
сб800:00+6ю22874 0.0 101719
03:00+5ююв338916 0.0 101739
06:00+6ююв248619 0.0 1017108
09:00+11юв4664100 0.0 1016702
12:00+14юв565499 0.0 10141115
15:00+15ю7849100 0.0 10111227
18:00+14ю61263100 0.0 1010637
21:00+13ю71565100 0.0 1009635
9 мая, вс
вс900:00+12ю71583100 0.5 1008572
03:00+9з3895100 6.9 1010511
06:00+8з5893100 0.9 1011522
09:00+8з4788100 1.1 1013581
12:00+8сз6777100 0.1 1016901
15:00+7ссз6887100 0.9 1018759
18:00+7с5988100 1.1 1019786
21:00+6с51090100 2.1 1022705
10 мая, пн
пн1000:00+6с41089100 0.0 1023554
03:00+4с5119332 0.0 1025341
06:00+5ссв61388100 0.0 1027573
09:00+9св8117135 0.0 1028875
12:00+13св79545 0.0 10281276
15:00+14св78495 0.0 10281363
18:00+12св610604 0.0 1028772
21:00+8св410764 0.0 1030180
11 мая, вт
вт1100:00+7св5137542 0.0 1030250
03:00+6св513764 0.0 1030263
06:00+7всв614745 0.0 1031383
09:00+12всв711584 0.0 1031591
12:00+16всв79525 0.0 1030854
15:00+17всв78522 0.0 1029906
18:00+16всв59640 0.0 1029527
21:00+11всв411783 0.0 1029206